www.pogodaiklimat.ru

Погода и климат >> Архив погоды >> Япония >> Вакканай


ПОГОДА в Вакканае

  • Прогноз погоды в Вакканае
  • Монитор погоды в Вакканае

АРХИВ ПОГОДЫ в Вакканае

Время (UTC), дата Ветер
(напр.,м/с)
 
Видим.   Явления Облачность Т
(С)
Тd
(С)
f
(%)
Тe
(С)
Тes
(С)
Комфортность P
(гПа)
Po
(гПа)
Тmin
(С)
Tmax
(С)
R
(мм)
R24
(мм)
S
(см)
13 13.09 ЮЗ 2 н/о н/о +16.7 +10.8 68 +17 +17 1017.7 1016.3
14 13.09 Ю 2 н/о н/о +16.3 +10.6 69 +17 +17 1017.0 1015.6
15 13.09 ЮЗ 3 н/о н/о +16.7 +9.9 64 +17 +17 1016.4 1015.0
16 13.09 Ю 2 н/о н/о +16.4 +10.1 66 +17 +17 1015.3 1013.9
17 13.09 Ю 3 н/о н/о +16.4 +11.6 73 +16 +16 1015.0 1013.6
18 13.09 Ю 3 20 км 9/1
[Sc Ac trans Ci sp]
+15.5 +11.7 78 +15 +15 1014.1 1012.7
19 13.09 Ю 4 н/о н/о +16.1 +12.9 81 +15 +15 1013.4 1012.0
21 13.09 Ю 4 30 км 9/1
[Cu med, cong Ac As Ci sp]
+16.3 +13.2 82 +16 +16 1013.2 1011.8
23 13.09 Ю 5 н/о н/о +18.2 +14.7 80 +18 +18 1012.2 1010.8
00 14.09 Ю 5 30 км 9/4
[Cu med, cong Ac As]
+19.5 +15.2 76 +21 +22 комфорт 1011.7 1010.3 +15.5
01 14.09 Ю 7 н/о н/о +20.7 +14.8 69 +23 +23 комфорт 1011.1 1009.7
02 14.09 ЮЗ 8 н/о н/о +20.7 +15.9 74 +23 +23 комфорт 1010.4 1009.0
03 14.09 ЮЗ 6 30 км 9/8
[Cu med, cong Ac As]
+20.9 +16.5 76 +24 +25 комфорт 1009.7 1008.3
04 14.09 Ю 6 н/о н/о +20.7 +16.7 78 +24 +24 комфорт 1009.4 1008.0
05 14.09 ЮЗ 7 н/о н/о +20.5 +17.1 81 +24 +24 комфорт 1008.8 1007.4
06 14.09 Ю 6 15 км слаб. ливневой дождь 9/5
[Cu med, cong Ac As]
+20.3 +18.1 87 +23 +24 комфорт 1008.3 1006.9 0.5
07 14.09 ЮЗ 5 н/о н/о +20.7 +17.5 82 +24 +24 комфорт 1008.4 1007.0
08 14.09 ЮЗ 6 н/о н/о +20.7 +16.1 75 +24 +24 комфорт 1008.8 1007.4
09 14.09 ЮЗ 6 20 км слаб. ливневой дождь 9/9
[Cu med, cong]
+20.2 +16.1 77 +23 +23 комфорт 1008.5 1007.1
10 14.09 ЮЗ 3 н/о н/о +20.4 +15.8 75 +24 +24 комфорт 1008.8 1007.4
11 14.09 З 5 н/о н/о +19.7 +17.1 85 +22 +22 комфорт 1009.0 1007.6
12 14.09 З 6 20 км слаб. ливневой дождь 9/9
[Cu med, cong]
+19.5 +16.9 85 +21 +21 комфорт 1009.5 1008.1 +21.2 0.5
13 14.09 З 5 н/о н/о +19.1 +16.7 86 +20 +20 1010.1 1008.7
14 14.09 ЮЗ 4 н/о н/о +19.2 +16.3 83 +21 +21 комфорт 1010.1 1008.7
15 14.09 З 3 н/о н/о +18.7 +15.6 82 +20 +20 1010.0 1008.6
16 14.09 З 2 н/о н/о +18.7 +15.4 81 +20 +20 1010.5 1009.1
17 14.09 З 3 н/о н/о +18.3 +15.0 81 +19 +19 1010.0 1008.6
18 14.09 З 5 20 км {ливн. осадки} 9/5
[Cu med, cong Ac trans]
+18.6 +15.7 83 +19 +19 1010.9 1009.5 0.5
19 14.09 З 2 н/о н/о +18.3 +15.6 84 +19 +19 1010.7 1009.3
20 14.09 СЗ 2 н/о н/о +17.2 +14.5 84 +18 +18 1011.6 1010.2
21 14.09 С 1 50 км 1/1
[Cu hum Ac trans Ci fib]
+16.6 +14.4 87 +18 +18 1011.6 1010.2
22 14.09 СЗ 2 н/о н/о +19.8 +14.4 71 +23 +23 комфорт 1011.7 1010.3
23 14.09 С 4 н/о н/о +20.4 +14.8 70 +23 +23 комфорт 1012.3 1010.9
00 15.09 С 4 30 км 1/1
[Cu med, cong Ac trans Ci sp]
+20.9 +14.8 68 +24 +29 комфорт 1012.6 1011.2 +15.9 0.5
01 15.09 С 4 н/о н/о +21.4 +14.8 66 +24 +24 комфорт 1012.9 1011.5
02 15.09 С 5 н/о н/о +21.7 +15.1 66 +25 +25 комфорт 1012.8 1011.4
03 15.09 С 3 40 км 1/1
[Cu med, cong Ac trans Ci fib]
+21.4 +15.9 71 +25 +33 комфорт 1012.6 1011.2
04 15.09 С 4 н/о н/о +21.3 +15.6 70 +25 +25 комфорт 1012.3 1010.9
05 15.09 С 5 н/о н/о +21.4 +16.2 72 +25 +25 комфорт 1012.4 1011.0
06 15.09 С 4 40 км 1/1
[Cu med, cong Ac trans Ci fib]
+20.8 +15.8 73 +24 +27 комфорт 1012.4 1011.0
07 15.09 С 3 н/о н/о +19.6 +14.9 74 +22 +22 комфорт 1012.6 1011.2
08 15.09 СВ 4 н/о н/о +19.1 +14.6 75 +20 +20 1012.8 1011.4
09 15.09 СВ 2 40 км 1/1
[Cu hum Ac trans Ci fib]
+18.8 +15.1 79 +21 +21 комфорт 1013.0 1011.6
10 15.09 Ю 1 н/о н/о +18.0 +14.5 80 +20 +20 1013.3 1011.9
11 15.09 Ю 1 н/о н/о +17.5 +14.6 83 +19 +19 1013.4 1012.0
12 15.09 ЮЗ 1 20 км 1/1
[Cu hum Ci fib]
+17.2 +15.0 87 +18 +18 1013.5 1012.1 +22.3
13 15.09 ЮЗ 1 н/о н/о +17.1 +14.9 87 +18 +18 1013.1 1011.7
14 15.09 ЮВ 2 н/о н/о +17.4 +14.5 83 +18 +18 1013.1 1011.7
15 15.09 Ю 2 н/о н/о +17.3 +13.6 79 +18 +18 1012.8 1011.4
16 15.09 ЮЗ 1 н/о н/о +16.7 +14.0 84 +18 +18 1012.2 1010.8
17 15.09 Ю 2 н/о н/о +16.8 +13.9 83 +17 +17 1012.1 1010.7
18 15.09 Ю 2 20 км 9/1
[St Ac trans Ci sp]
+16.6 +13.9 84 +17 +17 1011.9 1010.5
19 15.09 В 1 н/о н/о +16.0 +14.0 88 +17 +17 1011.2 1009.8
21 15.09 ЮВ 1 20 км 9/1
[Cu med, cong Ac As Ci sp]
+16.6 +13.5 82 +18 +18 1011.1 1009.7
22 15.09 ЮЗ 2 н/о н/о +16.9 +14.0 83 +17 +17 1010.7 1009.3
23 15.09 ЮЗ 1 н/о н/о +17.7 +15.0 84 +19 +19 1010.8 1009.4
00 16.09 ЮВ 1 30 км 9/1
[Cu med, cong Ac As Ci sp]
+18.9 +15.8 82 +21 +25 комфорт 1010.4 1009.0 +15.6
01 16.09 ЮВ 1 н/о н/о +20.6 +16.8 79 +25 +25 комфорт 1009.7 1008.3
02 16.09 В 2 н/о н/о +21.8 +17.2 75 +26 +26 душно 1009.0 1007.6
03 16.09 В 3 30 км 9/3
[Cu med, cong Ac As Ci sp]
+21.9 +17.5 76 +26 +30 душно 1008.2 1006.8
04 16.09 В 3 н/о н/о +21.8 +17.4 76 +26 +26 душно 1007.3 1005.9
05 16.09 В 5 н/о н/о +21.3 +18.1 82 +26 +26 душно 1006.7 1005.3
06 16.09 В 5 30 км 9/8
[Cu med, cong Ac As]
+20.9 +17.9 83 +25 +25 комфорт 1006.9 1005.5
07 16.09 В 3 н/о н/о +20.4 +17.6 84 +24 +24 комфорт 1007.1 1005.7
08 16.09 В 4 н/о н/о +19.9 +17.5 86 +23 +23 комфорт 1006.8 1005.4
09 16.09 В 4 20 км {ливн. осадки} 9/5
[Cu med, cong Ac As Ci sp]
+19.3 +17.3 88 +21 +21 комфорт 1006.6 1005.2
10 16.09 В 2 н/о н/о +18.9 +17.4 91 +21 +21 комфорт 1006.9 1005.5
11 16.09 СВ 4 н/о н/о +18.9 +17.4 91 +20 +20 1006.9 1005.5
12 16.09 СВ 7 20 км {ливн. осадки} 9/9
[St]
+18.5 +17.0 91 +19 +19 1006.9 1005.5 +22.2 0.0
13 16.09 СВ 7 н/о н/о +18.1 +15.9 87 +17 +17 1007.3 1005.9
14 16.09 СВ 5 н/о н/о +17.8 +16.2 90 +17 +17 1007.3 1005.9
15 16.09 С 6 н/о н/о +17.8 +15.8 88 +17 +17 1007.5 1006.1
16 16.09 С 6 н/о н/о +17.8 +15.3 85 +17 +17 1007.6 1006.2
17 16.09 С 6 н/о н/о +17.5 +14.8 84 +17 +17 1007.8 1006.4
18 16.09 С 6 20 км 3/3
[St]
+18.0 +14.3 79 +18 +18 1008.0 1006.6
19 16.09 СЗ 3 н/о н/о +17.9 +14.6 81 +18 +18 1008.1 1006.7
20 16.09 С 6 н/о н/о +18.0 +13.1 73 +18 +18 1008.7 1007.3
21 16.09 С 8 30 км 3/3
[Cu med, cong]
+18.3 +12.7 70 +18 +18 1009.3 1007.9
22 16.09 С 7 н/о н/о +18.8 +13.2 70 +19 +19 1009.7 1008.3
23 16.09 С 7 н/о н/о +19.2 +12.5 65 +20 +20 1010.2 1008.8
00 17.09 С 7 30 км 8/8
[Cu med, cong]
+18.8 +12.6 67 +19 +19 1010.6 1009.2 +17.4
01 17.09 С 7 н/о н/о +18.5 +11.6 64 +18 +18 1010.7 1009.3
02 17.09 С 6 н/о н/о +19.7 +10.4 55 +21 +21 комфорт 1010.9 1009.5
03 17.09 С 7 20 км 4/4
[Cu med, cong]
+19.3 +9.2 52 +20 +22 1011.2 1009.8
04 17.09 С 7 н/о н/о +19.1 +9.0 52 +19 +19 1011.3 1009.9
05 17.09 С 6 н/о н/о +18.9 +8.0 49 +19 +19 1011.5 1010.1
06 17.09 СЗ 3 40 км 3/3
[Cu hum]
+17.9 +7.4 50 +18 +21 1011.9 1010.5
07 17.09 З 3 н/о н/о +17.0 +8.9 59 +17 +17 1012.5 1011.1
08 17.09 З 3 н/о н/о +16.4 +8.9 61 +16 +16 1013.1 1011.7
09 17.09 З 3 30 км 1/1
[Cu hum]
+15.8 +6.3 53 +15 +15 1013.4 1012.0
10 17.09 З 2 н/о н/о +15.6 +6.1 53 +16 +16 1013.9 1012.5
11 17.09 З 2 н/о н/о +15.4 +5.6 52 +16 +16 1014.4 1013.0
12 17.09 З 1 30 км 1/1
[Cu hum]
+14.8 +6.1 56 +15 +15 1014.8 1013.4 +20.0
13 17.09 ЮЗ 1 н/о н/о +14.1 +6.5 60 +15 +15 1014.5 1013.1
14 17.09 Ю 2 н/о н/о +12.1 +8.0 76 +12 +12 1014.7 1013.3
15 17.09 Ю 2 н/о н/о +12.5 +9.0 79 +12 +12 1014.6 1013.2
16 17.09 Ю 2 н/о н/о +11.3 +8.3 82 +10 +10 1014.1 1012.7
17 17.09 ЮЗ 2 н/о н/о +11.7 +7.4 75 +11 +11 1013.6 1012.2
18 17.09 Ю 1 30 км 9/1
[Cu hum Ci sp]
+12.0 +7.3 73 +12 +12 1013.9 1012.5
19 17.09 Ю 2 н/о н/о +11.6 +7.7 77 +11 +11 1013.8 1012.4
20 17.09 ЮВ 2 н/о н/о +11.2 +8.3 82 +10 +10 1013.4 1012.0
21 17.09 Ю 2 40 км 9/1
[St Ci sp]
+11.9 +7.2 73 +11 +11 1013.3 1011.9
23 17.09 Ю 3 н/о н/о +12.9 +7.4 69 +12 +12 1012.2 1010.8
00 18.09 ЮВ 3 40 км 9/1
[Cu hum Ac As]
+14.2 +8.6 69 +13 +15 1011.3 1009.9 +10.7
01 18.09 В 4 н/о н/о +16.0 +9.2 64 +15 +15 1010.4 1009.0
02 18.09 ЮВ 7 н/о н/о +17.4 +7.5 52 +16 +16 1009.3 1007.9
03 18.09 Ю 6 30 км 6/1
[Cu med, cong Ac trans Ci sp]
+19.0 +8.1 49 +19 +22 1008.2 1006.8
04 18.09 Ю 5 н/о н/о +19.8 +10.2 54 +21 +21 комфорт 1007.3 1005.9
05 18.09 Ю 6 н/о н/о +19.4 +11.5 60 +20 +20 1006.4 1005.0
06 18.09 Ю 5 30 км 9/4
[Cu med, cong Ac trans Ci sp]
+19.3 +12.1 63 +20 +21 1004.8 1003.4
07 18.09 Ю 6 н/о н/о +16.8 +13.3 80 +16 +16 1004.2 1002.8
08 18.09 Ю 6 н/о н/о +15.2 +13.2 88 +14 +14 1002.8 1001.4
09 18.09 Ю 8 10 км в посл. час гроза {ливн. осадки} 9/9
[Cb calv Ac As]
+15.4 +13.8 90 +13 +13 1001.8 1000.4
10 18.09 З 6 н/о н/о +17.0 +14.1 83 +16 +16 1003.0 1001.6
11 18.09 З 5 н/о н/о +15.5 +9.0 65 +14 +14 1003.9 1002.5
12 18.09 З 5 20 км {гроза, ливн. осадки} 8/5
[Cu med, cong Ac trans]
+15.5 +8.5 63 +14 +14 1004.1 1002.7 +19.9 5
13 18.09 З 5 н/о н/о +15.0 +7.6 61 +14 +14 1004.5 1003.1
14 18.09 З 6 н/о н/о +14.1 +6.2 59 +12 +12 1004.8 1003.4
15 18.09 З 6 н/о н/о +13.4 +4.0 53 +11 +11 1005.2 1003.8
16 18.09 З 6 н/о н/о +12.7 +3.4 53 +11 +11 1005.2 1003.8
17 18.09 З 5 н/о н/о +12.7 +4.7 58 +11 +11 1004.4 1003.0
18 18.09 З 7 20 км {гроза, ливн. осадки} 8/8
[Cu med, cong]
+12.9 +2.2 48 +11 +11 1004.6 1003.2 0.5
19 18.09 З 4 н/о н/о +12.8 +2.9 51 +11 +11 1004.4 1003.0
20 18.09 З 7 н/о н/о +12.6 +3.8 55 +10 +10 1004.4 1003.0
21 18.09 З 7 30 км в посл. час ливневой дождь 9/9
[Cu med, cong]
+12.7 +3.1 52 +10 +10 1004.2 1002.8
22 18.09 ЮЗ 5 н/о н/о +11.0 +4.9 66 +9 +9 1003.9 1002.5
23 18.09 ЮЗ 5 н/о н/о +9.8 +3.6 65 +7 +7 1003.6 1002.2
00 19.09 З 7 20 км слаб. ливневой дождь {гроза} 9/9
[Cb calv Ac trans]
+10.6 +4.1 64 +7 +8 1003.6 1002.2 +7.3 11
01 19.09 З 5 н/о н/о +11.8 +3.3 56 +10 +10 1003.1 1001.7
02 19.09 ЮЗ 5 н/о н/о +11.0 +4.2 63 +8 +8 1002.8 1001.4
03 19.09 З 8 30 км в посл. час ливневой дождь 9/9
[Cb calv]
+13.0 +3.4 52 +10 +11 1002.1 1000.7
04 19.09 ЮЗ 8 н/о н/о +10.8 +4.9 67 +7 +7 1002.0 1000.6
05 19.09 ЮЗ 5 н/о н/о +10.9 +5.9 71 +8 +8 1001.5 1000.1
06 19.09 З 8 15 км слаб. ливневой дождь 9/9
[Cb calv]
+9.3 +5.9 79 +5 +5 1002.1 1000.7 3
07 19.09 З 8 н/о н/о +11.4 +3.7 59 +8 +8 1001.2 999.8
08 19.09 З 7 н/о н/о +11.6 +4.1 60 +9 +9 1001.7 1000.3
09 19.09 З 7 20 км слаб. ливневой дождь 9/9
[Cu med, cong]
+11.7 +4.7 62 +9 +9 1001.8 1000.4
10 19.09 З 7 н/о н/о +12.4 +3.9 56 +10 +10 1002.3 1000.9
11 19.09 З 8 н/о н/о +12.4 +4.1 57 +10 +10 1002.6 1001.2
12 19.09 З 6 20 км слаб. ливневой дождь 9/9
[Cu med, cong]
+11.2 +5.3 67 +8 +8 1002.8 1001.4 +13.6 5
13 19.09 З 6 н/о н/о +12.0 +5.6 65 +9 +9 1002.9 1001.5
14 19.09 З 7 н/о н/о +10.6 +6.8 77 +7 +7 1003.1 1001.7
15 19.09 З 5 н/о н/о +11.4 +7.5 77 +9 +9 1003.4 1002.0
16 19.09 СЗ 5 н/о н/о +11.2 +7.1 76 +9 +9 1004.3 1002.9
18 19.09 З 5 20 км в посл. час ливневой дождь 8/8
[Cu med, cong]
+11.9 +5.8 66 +10 +10 1005.5 1004.1 4
19 19.09 З 5 н/о н/о +12.2 +4.2 58 +10 +10 1006.3 1004.9
20 19.09 СЗ 4 н/о н/о +12.2 +3.4 55 +11 +11 1007.1 1005.7
21 19.09 СЗ 4 30 км 6/4
[Cu med, cong Ac trans Ci sp]
+12.4 +4.6 59 +11 +11 1007.8 1006.4
22 19.09 СЗ 3 н/о н/о +12.9 +5.6 61 +12 +12 1008.1 1006.7
23 19.09 СЗ 4 н/о н/о +13.8 +6.4 61 +12 +12 1008.9 1007.5
00 20.09 З 5 20 км слаб. ливневой дождь 9/9
[Cu med, cong Ci sp]
+14.0 +7.8 66 +12 +13 1009.6 1008.2 +10.2 4
01 20.09 СЗ 4 н/о н/о +13.2 +8.1 71 +12 +12 1010.1 1008.7
02 20.09 СЗ 5 н/о н/о +15.5 +7.5 59 +14 +14 1010.7 1009.3
03 20.09 СЗ 5 20 км слаб. ливневой дождь 9/9
[Cu med, cong]
+15.0 +7.3 60 +14 +14 1011.7 1010.3
04 20.09 СЗ 4 н/о н/о +15.1 +6.9 58 +14 +14 1012.2 1010.8
05 20.09 СЗ 6 н/о н/о +15.0 +6.1 55 +13 +13 1013.0 1011.6
06 20.09 СЗ 5 30 км в посл. час ливневой дождь 8/8
[Cu med, cong]
+15.7 +5.9 52 +15 +15 1013.9 1012.5 0.0
07 20.09 З 4 н/о н/о +14.4 +7.7 64 +13 +13 1014.9 1013.5
08 20.09 З 3 н/о н/о +14.7 +7.7 63 +14 +14 1015.8 1014.4
09 20.09 З 4 20 км слаб. ливневой дождь 9/9
[Cu med, cong]
+14.5 +7.8 64 +13 +13 1016.8 1015.4
10 20.09 СЗ 4 н/о н/о +14.0 +9.5 74 +13 +13 1018.0 1016.6
11 20.09 СЗ 4 н/о н/о +13.8 +9.5 75 +12 +12 1018.9 1017.5

 

Местоположение метеостанции Вакканай (Япония): широта 45.42 долгота 141.68 высота над уровнем моря 11 м.

В архиве по умолчанию представлена погода в Вакканае за последнюю неделю. Архивные данные за месяц целиком и за предыдущие месяцы, начиная с января 2011 года, Вы можете получить, выбрав интересующий диапазон дат из раскрывающегося списка и нажав кнопку "Ввод!".


*Определитесь, кто Вы:
робот инопланетянин человек

Внимание! Время в таблицах - всемирное. Для получения местного времени необходимо прибавить поправку, которая равна 9 ч.

Смотрите также архив погоды в соседних городах и на ближайших метеорологических станциях:

Погода на Мысе Крильон (Сахалинская область, Россия) (59 км)
Погода в Китами Сачи (Япония) (89 км)
Погода на Острове Монерон (Сахалинская область, Россия) (100 км)
Погода в Хаборо (Япония) (117 км)
Погода в Омурайсу (Япония) (137 км)
Погода в Невельске (Сахалинская область, Россия) (139 км)
Погода в Корсакове (Сахалинская область, Россия) (158 км)
Погода в Огоньках (Сахалинская область, Россия) (161 км)
Погода в Румои (Япония) (164 км)
Погода в Новиково (Сахалинская область, Россия) (165 км)

Пояснения к столбцам:

Ветер - указаны скорость ветра в м/с - средняя за 10 мин, порывы в срок и между сроками (в фигурных скобках) и направление, откуда дует ветер: С - северный, СВ - северо-восточный, В - восточный, ЮВ - юго-восточный, Ю - южный, ЮЗ - юго-западный, З - западный, СЗ - северо-западный.
Видимость - горизонтальная дальность видимости в метрах или километрах. При видимости от 1 до 10 км при отсутствии осадков обычно наблюдается дымка, при ухудшении видимости до 1 км и менее - туман. В сухую погоду видимость может ухудшаться дымом, пылью или мглою.
Явления - указаны атмосферные явления, наблюдавшиеся в срок или в последний час перед сроком; фигурными скобками обозначены явления, наблюдавшиеся между сроками (за 1-3 часа до срока); квадратными скобками обозначены град или гололедные отложения с указанием их диаметра в мм.
Облачность - указаны через наклонную черту общая и нижняя облачность в баллах и высота нижней границы облаков в метрах; квадратными скобками обозначены формы облаков: Ci - перистые, Cs - перисто-слоистые, Cc - перисто-кучевые, Ac - высококучевые, As - высокослоистые, Sc - слоисто-кучевые, Ns - слоисто-дождевые, Cu - кучевые, Cb - кучево-дождевые. Подробнее классификацию облаков см. в Атласе облаков (PDF).
T - Температура воздуха - температура, измеренная на высоте 2 м над землей.
Td - Температура точки росы - температура, при понижении до которой содержащийся в воздухе водяной пар достигнет насыщения.
f - Относительная влажность воздуха - влажноcть воздуха, измеренная на высоте 2 м над землей.
Te - Эффективная температура - температура, которую ощущает одетый по сезону человек в тени. Характеристика душности погоды. При расчете учитывается влияние влажности воздуха и скорости ветра на теплоощущения человека.
Tes - Эффективная температура на солнце - температура, которую ощущает человек, с поправкой на солнечный нагрев. Характеристика знойности погоды. Зависит от высоты солнца над горизонтом, облачности и скорости ветра. Ночью, в пасмурную погоду, а также при ветре 12 м/с и более поправка равна нулю.
P - Атмосферное давление - приведенное к уровню моря атмосферное давление.
Po - Атмосферное давление - измеренное на уровне метеостанции атмосферное давление.
Tmin - Минимальная температура - минимум температуры воздуха на высоте 2 м над землей.
Tmax - Максимальная температура - максимум температуры воздуха на высоте 2 м над землей.
R - Количество осадков - Количество выпавших осадков за период времени, мм. При наведении курсора мыши на число - период времени, за который выпало указанное количество осадков.
R24 - Количество осадков - Количество выпавших осадков за 24 часа, мм.
S - Снежный покров - Высота снежного покрова, см. При наведении курсора мыши на число - состояние снежного покрова и степень покрытия местности в баллах.